National Weather Service United States Department of Commerce
Data are updated at 11 and 26 past the hour. Coastal data is often not avaialable until 26 past the hour.
Check the Preious Version of the data HERE if data are missing.  

NYCBOYDAT LOC
TTAA00 KOKX 172328

Coastal Waters Roundup...For Informational Purposes Only
National Weather Service New York NY
700 PM EDT TUE SEP 17 2019

...Ocean Waters...
  
STATION/POSITION TIME  TEMP    WIND        PRES    WAVE   WND WV SWELL
                       AIR SEA DIR/SP/G            HT/PER HT/PER HT/PER/DIR
                 (UTC) (F)     (DEG/KT/KT) (MB)    (FT/S) (FT/S) (FT/S/D)
NY Harb Entrance 2310   70 72  120/  6/ 10 1019.2
20 S Fire Is NY  2250   70 69   60/ 16/ 17 1019.1    3/12   2/ 3   2/ 50/12
23 SSW Montauk P NOT AVBL
25 SE Block IS   2300      67                N/A     4/ 4   3/ 4   2/150/13
15 E Barnegat NJ 2300      71                N/A     3/13   2/ 9   2/140/13
Texas Tower #4   2310   68 71   50/ 16/ 19 1019.7

...Long Island South Shore (WeatherFlow - Wind is MPH)...
  
STATION/POSITION TIME  TEMP    WIND        PRES    WAVE   WND WV SWELL
                       AIR SEA DIR/SP/G            HT/PER HT/PER HT/PER/DIR
                 (UTC) (F)     (DEG/KT/KT) (MB)    (FT/S) (FT/S) (FT/S/D)
Great South Bay  2300   70 72   60/ 10/ 14   N/A

CITY           SKY/WX    TMP DP  RH WIND       PRES   REMARKS
Breezy Point     N/A     72 N/A N/A NE12G18     N/A                   
Jones Beach CG   N/A     70 N/A N/A NE7         N/A                   
Amityville       N/A     70 N/A N/A NE7         N/A                   
Boat Channel     N/A     70 N/A N/A NE10        N/A                   
Fire Island CG   N/A     70 N/A N/A NE9         N/A                   
Pt O Woods       N/A    N/A N/A N/A NE14        N/A                   
Blue Pt          N/A     68 N/A N/A NE8         N/A                   
East Moriches    N/A     66 N/A N/A E15         N/A                   
Shinnecock Inl   N/A     64 N/A N/A E20         N/A                   
Mecox Bay        N/A     63 N/A N/A E8          N/A                   
Napeaque         N/A     64 N/A N/A E14         N/A                   

...Long Island Sound...
  
STATION/POSITION TIME  TEMP    WIND        PRES    WAVE   WND WV SWELL
                       AIR SEA DIR/SP/G            HT/PER HT/PER HT/PER/DIR
                 (UTC) (F)     (DEG/KT/KT) (MB)    (FT/S) (FT/S) (FT/S/D)
Kings Point      2248   72 72   70/  7/ 12 1020.0
Execution Rocks  NOT AVBL
Western LI Sound NOT AVBL
Bridgeport NOS   2242   71 72   30/  3/  8 1019.1
New Haven NOS    2242   70 71   50/  6/  9 1019.0
Central LI Sound NOT AVBL
Ledge Light      2315   66      70/ 10/ 12 1019.1

...Long Island Sound Coastal  (WeatherFlow - Wind is MPH)...
  
CITY           SKY/WX    TMP DP  RH WIND       PRES   REMARKS
Larchmont        N/A     70 N/A N/A NE12        N/A                   
Norwalk          N/A     68 N/A N/A E5          N/A                   
Bayville         N/A     68 N/A N/A SE8         N/A                   
Eatons Neck      N/A     68 N/A N/A E8          N/A                   
Mt Sinai         N/A    N/A N/A N/A E7          N/A                   
New Haven Harb   N/A     66 N/A N/A NE2         N/A                   
Hammonasset      N/A     64 N/A N/A NE3         N/A                   
USCG Academy     N/A     64 N/A N/A E5          N/A                   
Gull Island      N/A     64 N/A N/A E15         N/A                   
Fishers Island   N/A     64 N/A N/A NE8         N/A                   

...Block Island Sound (WeatherFlow - Wind is MPH)...
  
CITY           SKY/WX    TMP DP  RH WIND       PRES   REMARKS
Block Island     N/A     63 N/A N/A E12         N/A                   
Ninigret Pond    N/A     63 N/A N/A NE7         N/A                   
Point Judith     N/A     63 N/A N/A NE14        N/A                   

...NY Harbor...
  
STATION/POSITION TIME  TEMP    WIND        PRES    WAVE   WND WV SWELL
                       AIR SEA DIR/SP/G            HT/PER HT/PER HT/PER/DIR
                 (UTC) (F)     (DEG/KT/KT) (MB)    (FT/S) (FT/S) (FT/S/D)
Bergen Point     2242   74 73              1019.1
Robbins Reef     2242   74      30/ 14/ 17 1018.9
Sandy Hook       2242   73 74   50/  8/ 14 1019.3

...NY Harbor (WeatherFlow - Wind is MPH)...
  
CITY           SKY/WX    TMP DP  RH WIND       PRES   REMARKS
Bayonne          N/A     70 N/A N/A N13         N/A                   
Perth Amboy      N/A     73 N/A N/A E7          N/A                   
Sandy Hook     NOT AVBL                                               

...New England Waters...
  
STATION/POSITION TIME  TEMP    WIND        PRES    WAVE   WND WV SWELL
                       AIR SEA DIR/SP/G            HT/PER HT/PER HT/PER/DIR
                 (UTC) (F)     (DEG/KT/KT) (MB)    (FT/S) (FT/S) (FT/S/D)
Buzzards Bay MA  2300   62      40/ 16/ 18 1020.6
Nantucket Shoals 2310   62 73   30/ 19/ 25 1019.7
Nantucket Sound  2310   62 69   50/ 14/ 17   N/A
Boston Harbor    2250   61 65   70/ 10/ 12 1019.9    2/11   2/ 4   2/ 90/11
Mass Bay         2204   61 63   60/  8/ 10 1020.3    3/11
Jeffrey's Ledge  2308      62                N/A     2/10   2/10   2/110/11
Isle of Shoals   2300   60      90/  5/  6 1020.7
Mnt Desert Rock  2300          350/  5/  5 1021.0
Matinicus Rock M 2250   56                 1020.7
Gulf of Maine    2250   59 59   20/ 10/ 12 1021.2    3/11   2/ 4   2/110/11
12 SE Portland M 2250   60 61  170/  6/  8 1020.8    2/10          2/100/10

...Southern NJ Coast...
  
STATION/POSITION TIME  TEMP    WIND        PRES    WAVE   WND WV SWELL
                       AIR SEA DIR/SP/G            HT/PER HT/PER HT/PER/DIR
                 (UTC) (F)     (DEG/KT/KT) (MB)    (FT/S) (FT/S) (FT/S/D)
Delaware Bay     2250   69 72   60/ 17/ 21 1018.4    5/ 6   5/ 6   2/ 80/11

...Mid-Atlantic and Southeast Coast... 
  
STATION/POSITION TIME  TEMP    WIND        PRES    WAVE   WND WV SWELL
                       AIR SEA DIR/SP/G            HT/PER HT/PER HT/PER/DIR
                 (UTC) (F)     (DEG/KT/KT) (MB)    (FT/S) (FT/S) (FT/S/D)
Thomas Point MD  2300   76 77   20/  5/  5 1019.5
Diamond Shoals N 2310   78 83   30/ 27/ 33 1012.9
Cape Lookout NC  2300   78      30/ 24/ 27 1014.2
Frying Pan Shls  2310   81 83   50/ 19/ 25 1013.0
Duck Pier NC     2236   74      40/ 22/ 25 1016.1
Folly Island SC  2300   83      90/ 12/ 13 1014.3
St Augustine FL  2300   83 84   10/  9/  9 1013.8
64 E VA Beach VA 2250   73 74   40/ 19/ 23 1016.2    8/ 6   7/ 6   3/130/11
Edisto SC        2310      83   60/ 14/ 17 1013.3
Grays Reef GA    2250   83 84   90/  8/ 10 1013.5    5/10   2/ 4   5/ 90/10
20 E Cape Canave 2310   83 84  340/ 16/ 19 1013.0
South Hatteras N 2310   81     360/ 31/ 41 1006.6
Georges Bank     2310   59 61              1017.8
$$

 

Updated:  1/4/16